Starlink 30758

operational
NORAD ID: 58133 Int'l Des: 2023-162 Owner: SPXS Country: US Constellation: starlink
LEOCIRCULAR

Starlink 30758について

説明を読み込み中...

リアルタイム位置

3D地球を読み込み中...

次回通過

高度履歴

Altitude vs Time

uPlot chart will show altitude changes over time

軌道要素

1 58133U 23162R 25350.06151511 .00001312 00000-0 11218-3 0 9992
2 58133 43.0027 227.2033 0001140 263.4251 96.6462 15.02531456119721
Epoch: Dec 16, 2025 • Age: 20 hours

現在のステータス

高度 559.7 km
速度 7.59 km/s
衛星直下点 27.03°N, 34.52°W
打ち上げ日 Oct 22, 2023
運用期間 2.1 years
タイプ internet

技術仕様

分類 Payload
質量 730.00 kg
乾燥質量 700.00 kg
総質量 730.00 kg
長さ 0.30 m
直径 4.10 m
スパン 29.00 m
形状 Box + pan
製造者 SPXS
バスタイプ Starlink V2M
フェーズステータス In Orbit
所有者/国 SPXS/US

大規模コンステレーション

Loading constellations...